Regional Weather Roundup
Issued by NWS Cleveland, OH

Home | Current Version | Previous Version | Graphics & Text | Print | Product List | Glossary On
Versions: 1 2 3 4 5 6 7 8 9 10 11 12 13 14 15 16 17 18 19 20 21 22 23 24 25 26 27 28 29 30 31 32 33 34 35 36 37 38 39 40 41 42 43 44 45 46 47 48 49 50
000
ASUS41 KCLE 221712
RWRCLE
OHIO REGIONAL WEATHER ROUNDUP
NATIONAL WEATHER SERVICE WILMINGTON, OH
1200 PM EST THU FEB 22 2018

NOTE: "FAIR" INDICATES FEW OR NO CLOUDS BELOW 12,000 FEET WITH NO
SIGNIFICANT WEATHER AND/OR OBSTRUCTIONS TO VISIBILITY.

OHZ001>008-015>018-024>027-034-035-043-044-221800-
   NORTHWEST OHIO

CITY           SKY/WX    TMP DP  RH WIND       PRES   REMARKS
DEFIANCE       CLOUDY    34  30  85 NE10      30.59R WCI  26
FINDLAY        CLOUDY    37  32  82 E16       30.54F
TOLEDO EXPRESS CLOUDY    35  32  88 NE14      30.61R WCI  26
TOLEDO EXEC    CLOUDY    35  29  78 NE16G22   30.60F WCI  25
LIMA           LGT RAIN  36  36 100 NE12      30.53F
$$

OHZ009>014-019>023-028>033-038-089-221800-
   NORTHEAST OHIO

CITY           SKY/WX    TMP DP  RH WIND       PRES   REMARKS
CLE-HOPKINS    LGT SNOW  33  31  92 NE16      30.62F FOG     WCI  23
CLE-LAKEFRONT  CLOUDY    32  30  92 NE20      30.61F FOG     WCI  20
CUY CO. ARPT   LGT SNOW  34  32  93 NE17      30.61R VSB 1   WCI  23
LORAIN-ELYRIA  MIX PCPN  32  28  85 NE18      30.59S WCI  20
ASHTABULA      LGT RAIN  32  32 100 N9        30.63R FOG     WCI  24
AKRON-CANTON   LGT RAIN  40  34  79 N12       30.57R
WOOSTER        LGT RAIN  37  35  92 NE13      30.55S FOG
MANSFIELD      CLOUDY    37  36  96 N10       30.54S
YOUNGSTOWN     CLOUDY    40  36  86 NE8       30.52R
$$

OHZ042-051>053-060>062-070>072-077>081-221800-
  SOUTHWEST OHIO

CITY           SKY/WX    TMP DP  RH WIND       PRES   REMARKS
CINC-COVINGTON CLOUDY    44  42  93 NE15      30.43F
CINC-LUNKEN    CLOUDY    44  42  93 NE13      30.47F
HAMILTON       CLOUDY    43  31  62 NE14      30.45F
DAYTON         CLOUDY    40  40 100 NE14      30.49F
WRIGHT-PAT AFB PTSUNNY   44  39  83 NE16      30.48F
DAYTON GENERAL CLOUDY    43  39  86 NE17G24   30.45F
WILMINGTON     CLOUDY    41  41 100 NE16      30.45F
$$

OHZ036-037-039>041-045>050-054>059-063>069-073>076-082>088-221800-
  CENTRAL AND SOUTHEAST OHIO

CITY           SKY/WX    TMP DP  RH WIND       PRES   REMARKS
COLUMBUS       CLOUDY    44  40  85 NE13      30.48F
OSU AIRPORT    CLOUDY    43  39  86 NE17G23   30.49F
BOLTON FIELD   CLOUDY    43  39  87 N17G24    30.49F
RICKENBACK AFB CLOUDY    43  42  96 NE14      30.48F
NEWARK         CLOUDY    42  39  89 NE10      30.48S
MARION         CLOUDY    38  35  89 NE17      30.54S
LANCASTER      CLOUDY    42  31  64 NE14      30.48F
ZANESVILLE     LGT RAIN  43  39  86 N8        30.47R FOG
NEW PHILLY     CLOUDY    42  37  82 N8        30.50R
$$




USA.gov is the U.S. government's official web portal to all federal, state and local government web resources and services.